Weather History for KRIC - November, 2012

Change the Weather History Date:

Thursday, November 1, 2012

  Actual Average Record
Temperature  
Mean Temperature 51 °F 55 °F  
Max Temperature 60 °F 66 °F 86 °F (1974)
Min Temperature 42 °F 43 °F 26 °F (1954)
Degree Days  
Heating Degree Days 14 10  
Month to date heating degree days 14 10  
Since 1 July heating degree days 216 243  
Cooling Degree Days 0 0  
Month to date cooling degree days 0 0  
Year to date cooling degree days 1744 1543  
Growing Degree Days 1 (Base 50)    
Moisture  
Dew Point 36 °F    
Average Humidity 61    
Maximum Humidity 82    
Minimum Humidity 40    
Precipitation  
Precipitation T in 0.11 in 2.44 in (1956)
Month to date precipitation T 0.11  
Year to date precipitation 33.42 37.21  
Snow  
Snow 0.00 in 0.00 in 0.00 in (2002)
Since 1 July snowfall 0.0 0.0  
Snow Depth 0.00 in    
Sea Level Pressure  
Sea Level Pressure 29.73 in    
Wind  
Wind Speed 8 mph (WSW)    
Max Wind Speed 15 mph    
Max Gust Speed 24 mph    
Visibility 10 miles    
Events      
T = Trace of Precipitation, MM = Missing Value Source: NWS Daily Summary

Daily Weather History Graph

Daily Weather History Graph

Search for Another Location

Airport or City:

Trip Planner

Search our weather history database for the weather conditions in past years. The results will help you decide how hot, cold, wet, or windy it might be!

Date:

Astronomy

Nov. 01, 2012 Rise Set
Actual Time 7:34 AM EDT 6:10 PM EDT
Civil Twilight 7:07 AM EDT 6:37 PM EDT
Nautical Twilight 6:36 AM EDT 7:08 PM EDT
Astronomical Twilight 6:06 AM EDT 7:38 PM EDT
Moon 8:08 PM EDT (11/1) 10:03 AM EDT (11/1)
Length of Visible Light 11h 30m
Length of Day
10h 35m
Waning Gibbous, 93% of the Moon is Illuminated
Nov 1
Waning Gibbous
Nov 6
Last Quarter
Nov 13
New
Nov 20
First Quarter
Nov 28
Full

Hourly Weather History & Observations

Time (EDT) Temp. Windchill Dew Point Humidity Pressure Visibility Wind Dir Wind Speed Gust Speed Precip Events Conditions
12:54 AM 44.1 °F 41.5 °F 35.1 °F 71% 29.72 in 10.0 mi South 4.6 mph - N/A   Mostly Cloudy
1:54 AM 42.1 °F 40.2 °F 37.0 °F 82% 29.71 in 10.0 mi SSW 3.5 mph - N/A   Mostly Cloudy
2:54 AM 43.0 °F 41.3 °F 37.9 °F 82% 29.71 in 10.0 mi SW 3.5 mph - N/A   Overcast
3:54 AM 42.1 °F 39.2 °F 37.9 °F 85% 29.71 in 10.0 mi South 4.6 mph - N/A   Overcast
4:54 AM 43.0 °F 41.3 °F 37.9 °F 82% 29.70 in 10.0 mi SW 3.5 mph - N/A   Overcast
5:54 AM 43.0 °F 41.3 °F 37.9 °F 82% 29.71 in 10.0 mi SSW 3.5 mph - N/A   Overcast
6:54 AM 43.0 °F 40.3 °F 37.9 °F 82% 29.71 in 10.0 mi South 4.6 mph - N/A   Overcast
7:54 AM 43.0 °F 41.3 °F 37.9 °F 82% 29.73 in 10.0 mi SW 3.5 mph - N/A   Overcast
8:54 AM 46.0 °F 43.9 °F 37.0 °F 71% 29.74 in 10.0 mi West 4.6 mph - N/A   Overcast
9:54 AM 50.0 °F - 36.0 °F 59% 29.74 in 10.0 mi West 9.2 mph - N/A   Overcast
10:54 AM 53.1 °F - 35.1 °F 50% 29.75 in 10.0 mi WNW 10.4 mph - N/A   Overcast
11:54 AM 55.9 °F - 34.0 °F 44% 29.74 in 10.0 mi West 10.4 mph - N/A   Overcast
12:54 PM 57.0 °F - 34.0 °F 42% 29.73 in 10.0 mi West 9.2 mph - N/A   Mostly Cloudy
1:54 PM 57.9 °F - 34.0 °F 41% 29.70 in 10.0 mi West 12.7 mph - N/A   Mostly Cloudy
2:54 PM 55.9 °F - 34.0 °F 44% 29.69 in 10.0 mi WNW 9.2 mph - N/A   Mostly Cloudy
3:54 PM 55.9 °F - 35.1 °F 45% 29.70 in 10.0 mi NW 11.5 mph 24.2 mph N/A   Overcast
4:54 PM 55.0 °F - 35.1 °F 47% 29.71 in 10.0 mi West 6.9 mph - N/A   Overcast
5:54 PM 54.0 °F - 34.0 °F 47% 29.72 in 10.0 mi West 15.0 mph - N/A   Mostly Cloudy
6:54 PM 53.1 °F - 34.0 °F 48% 29.75 in 10.0 mi West 5.8 mph - N/A   Mostly Cloudy
7:54 PM 52.0 °F - 35.1 °F 53% 29.76 in 10.0 mi West 5.8 mph - N/A   Mostly Cloudy
8:54 PM 51.1 °F - 36.0 °F 56% 29.76 in 10.0 mi WSW 9.2 mph - N/A   Mostly Cloudy
9:54 PM 50.0 °F - 36.0 °F 59% 29.78 in 10.0 mi West 9.2 mph - 0.00 in   Overcast
10:54 PM 50.0 °F - 35.1 °F 57% 29.79 in 10.0 mi WNW 10.4 mph - N/A   Overcast
11:54 PM 50.0 °F - 34.0 °F 54% 29.80 in 10.0 mi WNW 9.2 mph - N/A   Mostly Cloudy